www.pogodaiklimat.ru

Погода и климат >> Архив погоды >> Индонезия >> Surabaya Gedangan


ПОГОДА в Surabaya Gedangan

  • Прогноз погоды в Surabaya Gedangan
  • Монитор погоды в Surabaya Gedangan
  • Климат города

АРХИВ ПОГОДЫ в Surabaya Gedangan

Время (UTC), дата Ветер
(напр.,м/с)
 
Видим.   Явления Облачность Т
(С)
Тd
(С)
f
(%)
Тe
(С)
Тes
(С)
Комфортность P
(гПа)
Po
(гПа)
Тmin
(С)
Tmax
(С)
R
(мм)
R24
(мм)
S
(см)
18 13.08 ЮВ 1 8000 м 4/0
[As trans Ci fib]
+27.4 +24.6 85 +39 +39 очень
душно
1012.3 1012.0
21 13.08 Ю 2 8000 м 3/0
[Ci fib]
+25.6 +22.6 84 +34 +34 очень
душно
1012.3 1012.0
00 14.08 ЮЗ 1 9000 м 4/1 600 м
[Cu hum Ac trans Ci fib]
+25.6 +22.6 84 +34 +36 очень
душно
1013.3 1013.0 +24.9
03 14.08 СВ 4 10 км 5/5 540 м
[Cu med, cong As trans Ci fib]
+30.8 +23.4 65 +42 +47 опасность
перегрева
1013.3 1012.9
06 14.08 ЮВ 5 10 км 5/0 300 м
[As trans Ci sp]
+34.0 +20.6 46 +41 +48 опасность
перегрева
1011.6 1011.2
09 14.08 ЮВ 5 10 км 5/3 540 м
[Cu hum As trans Ci fib]
+32.4 +21.5 53 +41 +41 опасность
перегрева
1009.9 1009.6
12 14.08 ЮВ 4 8000 м 6/4 540 м
[Cu med, cong As trans Ci fib]
+29.0 +22.4 68 +38 +38 очень
душно
1011.4 1011.1 +34.4
15 14.08 ЮВ 3 8000 м 5/0
[As trans Ci fib]
+27.8 +22.2 72 +36 +36 очень
душно
1012.7 1012.3
18 14.08 Ю 1 8000 м 5/0
[As trans Ci fib]
+26.6 +21.9 75 +34 +34 очень
душно
1011.7 1011.4
21 14.08 ЮЗ 1 8000 м 4/0
[Ci fib]
+24.8 +21.0 79 +31 +31 очень
душно
1011.6 1011.2
00 15.08 ЮЗ 1 9000 м 4/0
[Ci fib]
+24.2 +20.4 79 +30 +33 очень
душно
1013.0 1012.7 +23.8
03 15.08 ЮВ 4 10 км ясно +31.0 +20.8 55 +38 +51 опасность
солнечного
удара
1013.2 1012.8
06 15.08 ЮВ 7 12 км 4/0
[Ac trans Ci fib]
+32.2 +20.6 50 +39 +42 очень
душно
1010.1 1009.8
09 15.08 ЮВ 5 10 км 3/0
[Ac trans Ci fib]
+31.3 +20.2 52 +38 +39 очень
душно
1008.9 1008.6
12 15.08 В 5 9000 м 3/0
[Ac trans Ci fib]
+28.6 +23.0 72 +38 +38 очень
душно
1009.9 1009.6 +23.8
15 15.08 ЮВ 4 8000 м 4/0
[Ci fib]
+27.2 +22.5 76 +36 +36 очень
душно
1011.5 1011.1
18 15.08 ЮЗ 1 8000 м 4/0
[Ci fib]
+26.2 +22.6 81 +35 +35 очень
душно
1010.8 1010.5
21 15.08 ЮЗ 1 8000 м 4/0
[Ci fib]
+24.2 +21.0 82 +30 +30 очень
душно
1010.6 1010.2
00 16.08 ЮЗ 1 9000 м 5/0
[Ci fib]
+23.8 +21.0 84 +30 +33 очень
душно
1011.6 1011.3 +23.6
03 16.08 СВ 3 8000 м 4/3 540 м
[Sc diur, vesp As trans Ci fib]
+29.0 +22.1 66 +37 +47 очень
душно
1011.1 1010.8
06 16.08 В 4 8000 м 5/3 540 м
[Sc As trans Ci fib]
+31.4 +20.3 52 +38 +45 очень
душно
1008.4 1008.1
09 16.08 ЮВ 4 8000 м 3/3 600 м
[Sc As trans Ci fib]
+31.5 +21.8 56 +40 +41 очень
душно
1007.5 1007.2
12 16.08 ЮВ 1 8000 м 6/3 540 м
[Sc As trans Ci fib]
+29.0 +22.9 70 +39 +39 очень
душно
1009.2 1008.6 +34.4
15 16.08 В 2 8000 м 3/0
[Ci fib]
+26.8 +21.7 74 +34 +34 очень
душно
1011.0 1010.7
18 16.08 ЮВ 1 8000 м 3/0
[Ci fib]
+25.4 +20.5 74 +31 +31 очень
душно
1010.5 1010.2
21 16.08 Ю 1 8000 м 3/0
[Ci fib]
+23.6 +19.4 77 +29 +29 душно 1009.9 1009.6
00 17.08 штиль 0 10 км 5/0
[Ac trans Ci fib]
+23.4 +19.9 81 +30 +33 очень
душно
1010.9 1010.6 +22.8
03 17.08 СВ 2 10 км 5/0
[Ac trans Cs]
+29.2 +20.0 58 +36 +47 очень
душно
1010.9 1010.6
06 17.08 ЮВ 2 10 км 5/0
[Ac trans Cs]
+33.2 +19.6 45 +39 +50 очень
душно
1008.6 1008.2
09 17.08 ЮВ 2 10 км 4/0
[As trans]
+32.8 +27.2 72 +51 +53 опасность
перегрева
1007.5 1007.2
12 17.08 СВ 2 10 км 4/0
[As trans]
+28.8 +22.7 70 +38 +38 очень
душно
1009.8 1009.4 +34.0
15 17.08 ЮВ 2 9000 м 8/4 600 м
[Cu hum As trans Ci fib]
+27.8 +22.9 75 +37 +37 очень
душно
1011.5 1011.1
18 17.08 ЮВ 1 9000 м 8/4 600 м
[Cu hum As trans Ci fib]
+27.2 +22.1 74 +35 +35 очень
душно
1010.4 1010.0
21 17.08 штиль 0 9000 м 6/3 600 м
[Cu hum Ac As Ci fib]
+25.6 +21.6 79 +33 +33 очень
душно
1010.0 1009.7
00 18.08 ЮЗ 1 10 км 6/3 600 м
[Cu hum Ac trans Ci fib]
+25.6 +21.8 80 +33 +35 очень
душно
1012.0 1011.7 +22.3
03 18.08 В 2 10 км 6/3 600 м
[Sc diur, vesp Ac trans Ci fib]
+29.8 +22.4 65 +39 +49 очень
душно
1012.6 1012.2
06 18.08 ЮВ 2 10 км 8/3 600 м
[Cu med, cong As op Cs]
+31.8 +21.8 55 +40 +47 очень
душно
1010.3 1010.0
09 18.08 ЮВ 4 10 км 8/3 600 м
[Cu med, cong As trans Ci fib]
+30.0 +23.6 69 +41 +42 опасность
перегрева
1009.7 1009.3
12 18.08 ЮВ 3 10 км 8/4 540 м
[Cb calv As op Cs]
+28.8 +22.9 70 +38 +38 очень
душно
1011.8 1011.4 +32.4
15 18.08 ЮВ 4 9000 м 5/3 600 м
[Cu hum Ac trans Ci fib]
+27.9 +23.6 77 +38 +38 очень
душно
1013.1 1012.7
18 18.08 штиль 0 8000 м 4/1 600 м
[Cu hum As trans Ci fib]
+27.2 +22.5 76 +36 +36 очень
душно
1012.0 1011.6
21 18.08 штиль 0 8000 м 4/0
[Ci fib]
+26.3 +22.9 82 +35 +35 очень
душно
1011.3 1010.9
00 19.08 З 2 9000 м 8/3 600 м
[Cu hum Ac trans Ci fib]
+25.4 +21.8 80 +33 +34 очень
душно
1013.3 1012.9 +25.2
03 19.08 В 2 12 км 5/1 600 м
[Cu hum Ac trans Ci fib]
+30.7 +22.7 62 +40 +52 опасность
солнечного
удара
1013.0 1012.7
06 19.08 В 5 12 км 6/1 600 м
[Cu hum Ac trans Ci fib]
+32.8 +22.8 56 +43 +49 опасность
перегрева
1010.8 1010.5
09 19.08 ЮВ 4 11 км 5/0
[Ci fib]
+32.4 +21.2 52 +40 +42 очень
душно
1009.2 1008.8
12 19.08 ЮВ 6 9000 м 3/0
[Ci fib]
+29.0 +23.8 74 +40 +40 очень
душно
1010.5 1010.1 +34.1
15 19.08 В 3 8000 м 4/0
[Ci fib]
+27.4 +23.3 78 +37 +37 очень
душно
1011.7 1011.4
18 19.08 З 1 8000 м 4/0
[Ci fib]
+26.4 +22.8 81 +35 +35 очень
душно
1011.4 1011.0
21 19.08 штиль 0 8000 м 4/0
[Ci fib]
+25.0 +21.6 81 +32 +32 очень
душно
1011.0 1010.7
00 20.08 штиль 0 10 км 4/0
[Ci fib]
+25.0 +22.2 84 +32 +36 очень
душно
1012.3 1011.9 +24.6
03 20.08 В 4 10 км 3/1 540 м
[Cu hum As trans]
+31.0 +23.3 64 +42 +51 опасность
перегрева
1012.0 1011.6
06 20.08 В 3 10 км 3/1 600 м
[Cu med, cong As trans]
+32.2 +22.5 57 +42 +52 опасность
перегрева
1009.0 1008.6
09 20.08 ЮВ 3 10 км 3/1 600 м
[Cu med, cong As trans]
+33.0 +19.7 46 +39 +41 очень
душно
1007.9 1007.5
12 20.08 ЮВ 4 9000 м 3/0
[As trans]
+29.0 +22.6 68 +38 +38 очень
душно
1009.1 1008.7 +34.2

 

Местоположение метеостанции Surabaya Gedangan (Индонезия): широта -7.22 долгота 113.71 высота над уровнем моря 113 м.

В архиве по умолчанию представлена погода в Surabaya Gedangan за последнюю неделю. Архивные данные за месяц целиком и за предыдущие месяцы, начиная с января 2011 года, Вы можете получить, выбрав интересующий диапазон дат из раскрывающегося списка и нажав кнопку "Ввод!".

Внимание! Время в таблицах - всемирное. Для получения местного времени необходимо прибавить поправку, которая в Surabaya Gedangan равна 7 ч.

Смотрите также архив погоды в соседних городах и на ближайших метеорологических станциях:

Погода в Kalianget (Индонезия) (33 км)
Погода в Juanda Int Airport (Индонезия) (106 км)
Погода в Surabaya Perak (Индонезия) (110 км)
Погода в Banyuwangi (Индонезия) (134 км)
Погода в Sangkapura BI (Индонезия) (194 км)
Погода в Denpasar (Индонезия) (233 км)
Погода в Ampenan (Индонезия) (297 км)
Погода в Semarang (Индонезия) (365 км)
Погода в Achmad Yani Int Airport (Индонезия) (369 км)
Погода в Sumbawa Besar (Индонезия) (429 км)

Пояснения к столбцам:

Ветер - указаны скорость ветра в м/с - средняя за 10 мин, порывы в срок и между сроками (в фигурных скобках) и направление, откуда дует ветер: С - северный, СВ - северо-восточный, В - восточный, ЮВ - юго-восточный, Ю - южный, ЮЗ - юго-западный, З - западный, СЗ - северо-западный.
Видимость - горизонтальная дальность видимости в метрах или километрах. При видимости от 1 до 10 км при отсутствии осадков обычно наблюдается дымка, при ухудшении видимости до 1 км и менее - туман. В сухую погоду видимость может ухудшаться дымом, пылью или мглою.
Явления - указаны атмосферные явления, наблюдавшиеся в срок или в последний час перед сроком; фигурными скобками обозначены явления, наблюдавшиеся между сроками (за 1-3 часа до срока); квадратными скобками обозначены град или гололедные отложения с указанием их диаметра в мм.
Облачность - указаны через наклонную черту общая и нижняя облачность в баллах и высота нижней границы облаков в метрах; квадратными скобками обозначены формы облаков: Ci - перистые, Cs - перисто-слоистые, Cc - перисто-кучевые, Ac - высококучевые, As - высокослоистые, Sc - слоисто-кучевые, Ns - слоисто-дождевые, Cu - кучевые, Cb - кучево-дождевые. Подробнее классификацию облаков см. в Атласе облаков (PDF).
T - Температура воздуха - температура, измеренная на высоте 2 м над землей.
Td - Температура точки росы - температура, при понижении до которой содержащийся в воздухе водяной пар достигнет насыщения.
f - Относительная влажность воздуха - влажноcть воздуха, измеренная на высоте 2 м над землей.
Te - Эффективная температура - температура, которую ощущает одетый по сезону человек в тени. Характеристика душности погоды. При расчете учитывается влияние влажности воздуха и скорости ветра на теплоощущения человека.
Tes - Эффективная температура на солнце - температура, которую ощущает человек, с поправкой на солнечный нагрев. Характеристика знойности погоды. Зависит от высоты солнца над горизонтом, облачности и скорости ветра. Ночью, в пасмурную погоду, а также при ветре 12 м/с и более поправка равна нулю.
P - Атмосферное давление - приведенное к уровню моря атмосферное давление.
Po - Атмосферное давление - измеренное на уровне метеостанции атмосферное давление.
Tmin - Минимальная температура - минимум температуры воздуха на высоте 2 м над землей.
Tmax - Максимальная температура - максимум температуры воздуха на высоте 2 м над землей.
R - Количество осадков - Количество выпавших осадков за период времени, мм. При наведении курсора мыши на число - период времени, за который выпало указанное количество осадков.
R24 - Количество осадков - Количество выпавших осадков за 24 часа, мм.
S - Снежный покров - Высота снежного покрова, см. При наведении курсора мыши на число - состояние снежного покрова и степень покрытия местности в баллах.